Location: Bli��� Lhota
(48.7570°N, 14.0120°E)
Time: 05:31:22
(UTC+00:00)

Cosmos 1943 - Pass Details

Date: 18 September 2020
Orbit: 833 x 850 km, 71.0° (Epoch: 22 October)

Event Time Altitude Azimuth Distance (km) Brightness Sun altitude
Rises 18:01:51 0° 330° (NNW) 3,401 7.1 -9.3°
Reaches altitude 10° 18:04:18 10° 328° (NNW) 2,465 6.3 -9.7°
Maximum altitude 18:09:55 70° 246° (WSW) 896 3.5 -10.6°
Drops below altitude 10° 18:15:32 10° 164° (SSE) 2,460 5.3 -11.5°
Sets 18:17:59 0° 162° (SSE) 3,393 6.0 -11.9°
